Hourly Weather Gola Gokarannath

Today, 13 May, Thursday

Time Temperature Precipitation Wind Pressure Humidity
00:00 +28°C° 0 mm 3 mps 737 mmHg 58%
01:00 +27°C° 0 mm 3 mps 737 mmHg 63%
02:00 +26°C° 0 mm 3 mps 737 mmHg 68%
03:00 +26°C° 0 mm 3 mps 738 mmHg 69%
04:00 +26°C° 0 mm 4 mps 738 mmHg 69%
05:00 +26°C° 0 mm 4 mps 739 mmHg 70%
06:00 +27°C° 0 mm 4 mps 739 mmHg 65%
07:00 +28°C° 0 mm 4 mps 740 mmHg 61%
08:00 +29°C° 0 mm 4 mps 741 mmHg 56%
09:00 +30°C° 0 mm 3 mps 740 mmHg 51%
10:00 +33°C° 0 mm 3 mps 740 mmHg 45%
11:00 +34°C° 0 mm 3 mps 740 mmHg 40%
12:00 +35°C° 0 mm 3 mps 739 mmHg 37%
13:00 +36°C° 0 mm 2 mps 738 mmHg 33%
14:00 +36°C° 0 mm 1 mps 737 mmHg 30%
15:00 +37°C° 0 mm 2 mps 737 mmHg 30%
16:00 +37°C° 0 mm 2 mps 736 mmHg 30%
17:00 +37°C° 0 mm 2 mps 736 mmHg 31%
18:00 +34°C° 0.8 mm 3 mps 736 mmHg 40%
19:00 +29°C° 0.8 mm 3 mps 737 mmHg 49%
20:00 +26°C° 0.8 mm 3 mps 738 mmHg 58%
21:00 +26°C° 0 mm 3 mps 738 mmHg 62%
22:00 +26°C° 0 mm 2 mps 738 mmHg 66%
23:00 +26°C° 0 mm 1 mps 738 mmHg 70%

Tomorrow, 14 May, Friday

Time Temperature Precipitation Wind Pressure Humidity
00:00 +26°C° 0.1 mm 2 mps 738 mmHg 71%
01:00 +25°C° 0.1 mm 2 mps 738 mmHg 73%
02:00 +25°C° 0.1 mm 2 mps 738 mmHg 74%
03:00 +25°C° 0.1 mm 2 mps 738 mmHg 75%
04:00 +25°C° 0.1 mm 2 mps 738 mmHg 75%
05:00 +25°C° 0.1 mm 1 mps 739 mmHg 75%
06:00 +26°C° 0.2 mm 2 mps 739 mmHg 67%
07:00 +28°C° 0.2 mm 2 mps 740 mmHg 60%
08:00 +29°C° 0.2 mm 2 mps 740 mmHg 52%
09:00 +31°C° 0 mm 2 mps 740 mmHg 46%
10:00 +34°C° 0 mm 2 mps 739 mmHg 41%
11:00 +35°C° 0 mm 1 mps 739 mmHg 35%
12:00 +36°C° 0 mm 1 mps 738 mmHg 32%
13:00 +37°C° 0 mm 1 mps 737 mmHg 29%
14:00 +39°C° 0 mm 1 mps 737 mmHg 26%
15:00 +39°C° 0 mm 2 mps 736 mmHg 26%
16:00 +39°C° 0 mm 3 mps 736 mmHg 25%
17:00 +40°C° 0 mm 4 mps 736 mmHg 24%
18:00 +38°C° 0 mm 3 mps 736 mmHg 27%
19:00 +36°C° 0 mm 2 mps 736 mmHg 30%
20:00 +35°C° 0 mm 2 mps 736 mmHg 33%
21:00 +34°C° 0 mm 2 mps 737 mmHg 34%
22:00 +34°C° 0 mm 2 mps 737 mmHg 36%
23:00 +32°C° 0 mm 2 mps 737 mmHg 37%

Day after tomorrow, 15 May, Saturday

Time Temperature Precipitation Wind Pressure Humidity
00:00 +31°C° 0.1 mm 2 mps 737 mmHg 39%
01:00 +31°C° 0.1 mm 2 mps 737 mmHg 41%
02:00 +30°C° 0.1 mm 2 mps 736 mmHg 43%
03:00 +30°C° 0 mm 2 mps 737 mmHg 44%
04:00 +29°C° 0 mm 2 mps 737 mmHg 45%
05:00 +29°C° 0 mm 2 mps 737 mmHg 46%
06:00 +31°C° 0 mm 2 mps 738 mmHg 42%
07:00 +32°C° 0 mm 2 mps 738 mmHg 37%
08:00 +35°C° 0 mm 2 mps 739 mmHg 32%
09:00 +37°C° 0 mm 2 mps 739 mmHg 29%
10:00 +39°C° 0 mm 1 mps 738 mmHg 25%
11:00 +41°C° 0 mm 1 mps 738 mmHg 21%
12:00 +42°C° 0 mm 1 mps 738 mmHg 20%
13:00 +42°C° 0 mm 2 mps 737 mmHg 18%
14:00 +44°C° 0 mm 3 mps 736 mmHg 16%
15:00 +44°C° 0 mm 3 mps 736 mmHg 16%
16:00 +44°C° 0 mm 4 mps 736 mmHg 15%
17:00 +44°C° 0 mm 4 mps 735 mmHg 15%
18:00 +42°C° 0 mm 4 mps 736 mmHg 17%
19:00 +39°C° 0 mm 3 mps 736 mmHg 19%
20:00 +38°C° 0 mm 2 mps 736 mmHg 21%
21:00 +37°C° 0 mm 2 mps 737 mmHg 23%
22:00 +36°C° 0 mm 2 mps 737 mmHg 25%
23:00 +35°C° 0 mm 2 mps 737 mmHg 27%

16 May, Sunday

Time Temperature Precipitation Wind Pressure Humidity
00:00 +34°C° 0 mm 2 mps 737 mmHg 28%
01:00 +34°C° 0 mm 2 mps 737 mmHg 29%
02:00 +32°C° 0 mm 1 mps 737 mmHg 30%
03:00 +32°C° 0 mm 1 mps 737 mmHg 31%
04:00 +32°C° 0 mm 2 mps 737 mmHg 31%
05:00 +31°C° 0 mm 2 mps 737 mmHg 32%
06:00 +34°C° 0 mm 2 mps 738 mmHg 29%
07:00 +36°C° 0 mm 3 mps 739 mmHg 27%
08:00 +38°C° 0 mm 3 mps 739 mmHg 24%
09:00 +40°C° 0 mm 2 mps 739 mmHg 21%
10:00 +42°C° 0 mm 2 mps 739 mmHg 18%
11:00 +43°C° 0 mm 1 mps 739 mmHg 15%
12:00 +45°C° 0 mm 2 mps 738 mmHg 14%
13:00 +46°C° 0 mm 2 mps 737 mmHg 13%
14:00 +47°C° 0 mm 3 mps 736 mmHg 11%
15:00 +46°C° 0 mm 3 mps 736 mmHg 11%
16:00 +46°C° 0 mm 3 mps 736 mmHg 11%
17:00 +47°C° 0 mm 4 mps 735 mmHg 11%
18:00 +44°C° 0 mm 3 mps 736 mmHg 13%
19:00 +41°C° 0 mm 2 mps 736 mmHg 14%
20:00 +40°C° 0 mm 2 mps 736 mmHg 16%
21:00 +39°C° 0 mm 2 mps 736 mmHg 16%
22:00 +39°C° 0 mm 2 mps 737 mmHg 16%
23:00 +39°C° 0 mm 1 mps 737 mmHg 17%

17 May, Monday

Time Temperature Precipitation Wind Pressure Humidity
00:00 +36°C° 0 mm 1 mps 737 mmHg 18%
01:00 +35°C° 0 mm 1 mps 736 mmHg 20%
02:00 +34°C° 0 mm 1 mps 736 mmHg 22%
03:00 +34°C° 0 mm 1 mps 737 mmHg 23%
04:00 +34°C° 0 mm 1 mps 737 mmHg 23%
05:00 +33°C° 0 mm 1 mps 737 mmHg 23%
06:00 +36°C° 0 mm 2 mps 738 mmHg 22%
07:00 +38°C° 0 mm 3 mps 738 mmHg 20%
08:00 +39°C° 0 mm 3 mps 739 mmHg 19%
09:00 +42°C° 0 mm 3 mps 738 mmHg 17%
10:00 +43°C° 0 mm 2 mps 738 mmHg 15%
11:00 +46°C° 0 mm 2 mps 738 mmHg 13%
12:00 +47°C° 0 mm 2 mps 737 mmHg 12%
13:00 +47°C° 0 mm 3 mps 737 mmHg 11%
14:00 +48°C° 0 mm 3 mps 736 mmHg 10%
15:00 +49°C° 0 mm 4 mps 736 mmHg 10%
16:00 +48°C° 0 mm 4 mps 735 mmHg 11%
17:00 +48°C° 0 mm 4 mps 735 mmHg 11%
18:00 +45°C° 0 mm 4 mps 735 mmHg 12%
19:00 +44°C° 0 mm 3 mps 736 mmHg 14%
20:00 +42°C° 0 mm 3 mps 736 mmHg 15%
21:00 +42°C° 0 mm 3 mps 736 mmHg 15%
22:00 +42°C° 0 mm 4 mps 737 mmHg 16%
23:00 +42°C° 0 mm 5 mps 737 mmHg 16%

18 May, Tuesday

Time Temperature Precipitation Wind Pressure Humidity
00:00 +41°C° 0 mm 5 mps 737 mmHg 17%
01:00 +41°C° 0 mm 4 mps 736 mmHg 19%
02:00 +40°C° 0 mm 4 mps 736 mmHg 20%
03:00 +40°C° 0 mm 5 mps 736 mmHg 20%
04:00 +40°C° 0 mm 5 mps 736 mmHg 21%
05:00 +39°C° 0 mm 6 mps 736 mmHg 22%
06:00 +39°C° 0 mm 6 mps 737 mmHg 23%
07:00 +39°C° 0 mm 6 mps 738 mmHg 24%
08:00 +39°C° 0 mm 5 mps 738 mmHg 25%
09:00 +39°C° 0 mm 5 mps 738 mmHg 25%
10:00 +39°C° 0 mm 5 mps 739 mmHg 25%
11:00 +39°C° 0 mm 5 mps 739 mmHg 25%
12:00 +39°C° 0 mm 5 mps 738 mmHg 27%
13:00 +37°C° 0 mm 4 mps 738 mmHg 29%
14:00 +36°C° 0 mm 3 mps 738 mmHg 30%
15:00 +37°C° 0 mm 3 mps 738 mmHg 29%
16:00 +37°C° 0 mm 3 mps 737 mmHg 28%
17:00 +37°C° 0 mm 3 mps 737 mmHg 26%
18:00 +36°C° 0 mm 3 mps 737 mmHg 29%
19:00 +35°C° 0 mm 2 mps 738 mmHg 32%
20:00 +34°C° 0 mm 2 mps 738 mmHg 35%
21:00 +32°C° 0 mm 2 mps 738 mmHg 36%
22:00 +33°C° 0 mm 3 mps 738 mmHg 37%
23:00 +31°C° 0 mm 3 mps 737 mmHg 38%
Show more